BRU945 UMMS-ULLI

Flight info

Callsign BRU945
Flight time 1h 4m
Altitude 34000
Route N0450F340 AGNEF N743 DITBI T782 KOLET
Aircraft B738/M-SDE2E3FGHIRWXY/LB1

Departure

Time 2026-05-05 11:33
Airport Minsk National Airport (UMMS)

Arrival

Time 2026-05-05 12:38
Airport Pulkovo Airport (ULLI)
Time Latitude Longitude Altitude Speed Heading
2026-05-05 11:05 53.88680 28.03441 668 ft 0 kts 319°
2026-05-05 11:26 53.88687 28.03429 666 ft 6 kts 318°
2026-05-05 11:26 53.88710 28.03353 668 ft 7 kts 261°
2026-05-05 11:27 53.88680 28.03300 668 ft 7 kts 202°
2026-05-05 11:27 53.88635 28.03326 668 ft 9 kts 139°
2026-05-05 11:27 53.88571 28.03422 668 ft 15 kts 139°
2026-05-05 11:27 53.88524 28.03541 668 ft 11 kts 82°
2026-05-05 11:28 53.88578 28.03663 668 ft 16 kts 48°
2026-05-05 11:28 53.88668 28.03834 668 ft 22 kts 51°
2026-05-05 11:28 53.88776 28.04044 668 ft 25 kts 49°
2026-05-05 11:28 53.88893 28.04264 669 ft 25 kts 51°
2026-05-05 11:29 53.89003 28.04475 669 ft 23 kts 49°
2026-05-05 11:29 53.89108 28.04674 669 ft 22 kts 51°
2026-05-05 11:29 53.89191 28.04843 668 ft 12 kts 66°
2026-05-05 11:29 53.89168 28.04959 668 ft 11 kts 143°
2026-05-05 11:30 53.89096 28.05052 668 ft 16 kts 141°
2026-05-05 11:30 53.88997 28.05195 668 ft 22 kts 137°
2026-05-05 11:30 53.88869 28.05387 668 ft 27 kts 138°
2026-05-05 11:30 53.88714 28.05618 668 ft 31 kts 139°
2026-05-05 11:31 53.88548 28.05857 668 ft 31 kts 140°
2026-05-05 11:31 53.88391 28.06095 668 ft 29 kts 137°
2026-05-05 11:31 53.88244 28.06318 668 ft 27 kts 140°
2026-05-05 11:31 53.88105 28.06524 668 ft 26 kts 139°
2026-05-05 11:32 53.87988 28.06694 668 ft 17 kts 139°
2026-05-05 11:32 53.87950 28.06841 666 ft 14 kts 68°
2026-05-05 11:32 53.88005 28.06953 666 ft 13 kts 42°
2026-05-05 11:32 53.88088 28.06949 665 ft 13 kts 327°
2026-05-05 11:33 53.88225 28.06747 665 ft 56 kts 319°
2026-05-05 11:33 53.88706 28.06034 665 ft 125 kts 319°
2026-05-05 11:33 53.89487 28.04851 835 ft 163 kts 318°
2026-05-05 11:33 53.90304 28.03628 1746 ft 154 kts 316°
2026-05-05 11:34 53.91104 28.02420 2580 ft 160 kts 314°
2026-05-05 11:34 53.91936 28.01181 3598 ft 155 kts 315°
2026-05-05 11:34 53.92767 27.99957 4405 ft 166 kts 315°
2026-05-05 11:34 53.93716 27.98547 4701 ft 197 kts 315°
2026-05-05 11:35 53.94783 27.96991 4964 ft 220 kts 323°
2026-05-05 11:35 53.96313 27.96138 5187 ft 250 kts 358°
2026-05-05 11:35 53.98079 27.96680 5705 ft 268 kts 12°
2026-05-05 11:35 53.99921 27.97609 6251 ft 282 kts 14°
2026-05-05 11:36 54.01825 27.98586 6989 ft 288 kts 13°
2026-05-05 11:36 54.03750 27.99627 7792 ft 294 kts 22°
2026-05-05 11:36 54.05382 28.01700 8572 ft 303 kts 49°
2026-05-05 11:36 54.06302 28.04805 9390 ft 309 kts 78°
2026-05-05 11:37 54.06452 28.08458 10212 ft 312 kts 92°
2026-05-05 11:37 54.06408 28.12281 10533 ft 336 kts 92°
2026-05-05 11:37 54.06353 28.16413 10785 ft 360 kts 92°
2026-05-05 11:37 54.06316 28.20727 11423 ft 368 kts 92°
2026-05-05 11:38 54.06395 28.25125 12201 ft 374 kts 86°
2026-05-05 11:38 54.06676 28.29568 13020 ft 379 kts 84°
2026-05-05 11:38 54.06987 28.34056 13871 ft 383 kts 84°
2026-05-05 11:38 54.07396 28.38559 14635 ft 388 kts 74°
2026-05-05 11:39 54.08525 28.42680 15418 ft 391 kts 57°
2026-05-05 11:39 54.09989 28.46602 16255 ft 394 kts 56°
2026-05-05 11:39 54.11545 28.50469 17020 ft 398 kts 47°
2026-05-05 11:39 54.13643 28.53515 17768 ft 398 kts 27°
2026-05-05 11:40 54.16123 28.55593 18523 ft 398 kts 21°
2026-05-05 11:40 54.18670 28.57509 19176 ft 402 kts 20°
2026-05-05 11:40 54.21245 28.59413 19838 ft 406 kts 20°
2026-05-05 11:40 54.23845 28.61356 20502 ft 409 kts 20°
2026-05-05 11:41 54.26459 28.63339 21160 ft 413 kts 21°
2026-05-05 11:41 54.29088 28.65361 21800 ft 417 kts 21°
2026-05-05 11:41 54.31748 28.67424 22406 ft 421 kts 21°
2026-05-05 11:41 54.34426 28.69511 23012 ft 425 kts 21°
2026-05-05 11:42 54.37131 28.71624 23593 ft 429 kts 21°
2026-05-05 11:42 54.39856 28.73758 24105 ft 432 kts 21°
2026-05-05 11:42 54.42596 28.75905 24628 ft 434 kts 21°
2026-05-05 11:42 54.45353 28.78065 25123 ft 437 kts 21°
2026-05-05 11:43 54.48147 28.80182 25614 ft 438 kts 16°
2026-05-05 11:43 54.51099 28.81267 26057 ft 433 kts
2026-05-05 11:43 54.54111 28.81672 26565 ft 434 kts 359°
2026-05-05 11:43 54.57133 28.82033 27032 ft 437 kts 359°
2026-05-05 11:44 54.60180 28.82415 27451 ft 440 kts 360°
2026-05-05 11:44 54.63252 28.82835 27876 ft 444 kts
2026-05-05 11:44 54.66295 28.83280 28300 ft 446 kts
2026-05-05 11:44 54.69438 28.83758 28739 ft 449 kts
2026-05-05 11:45 54.72519 28.84235 29128 ft 452 kts
2026-05-05 11:45 54.75661 28.84723 29518 ft 454 kts
2026-05-05 11:45 54.78826 28.85214 29881 ft 457 kts
2026-05-05 11:45 54.82000 28.85703 30273 ft 458 kts
2026-05-05 11:46 54.85158 28.86190 30772 ft 455 kts 360°
2026-05-05 11:46 54.91514 28.87164 30863 ft 459 kts 360°
2026-05-05 11:47 54.97834 28.88145 30861 ft 452 kts 360°
2026-05-05 11:47 55.04113 28.89120 30865 ft 454 kts 359°
2026-05-05 11:48 55.13607 28.90602 30869 ft 455 kts 359°
2026-05-05 11:48 55.19918 28.91595 30868 ft 456 kts 359°
2026-05-05 11:49 55.26236 28.92589 30863 ft 456 kts 359°
2026-05-05 11:49 55.32562 28.93653 30863 ft 456 kts 360°
2026-05-05 11:50 55.38877 28.94773 30863 ft 456 kts 360°
2026-05-05 11:50 55.45147 28.95888 30858 ft 455 kts 359°
2026-05-05 11:51 55.51448 28.97004 30858 ft 455 kts 359°
2026-05-05 11:51 55.57782 28.98127 30864 ft 454 kts 359°
2026-05-05 11:52 55.64084 28.99246 31173 ft 456 kts 359°
2026-05-05 11:52 55.67234 28.99807 31618 ft 455 kts 359°
2026-05-05 11:52 55.70383 29.00372 32151 ft 452 kts 359°
2026-05-05 11:53 55.73499 29.00933 32699 ft 448 kts 359°
2026-05-05 11:53 55.76593 29.01489 33207 ft 446 kts 359°
2026-05-05 11:53 55.79636 29.02035 33622 ft 445 kts 359°
2026-05-05 11:53 55.82725 29.02588 33866 ft 448 kts 359°
2026-05-05 11:54 55.89015 29.03716 33845 ft 450 kts 359°
2026-05-05 11:54 55.95196 29.04844 33848 ft 443 kts 359°
2026-05-05 11:55 56.01340 29.05954 33857 ft 444 kts 359°
2026-05-05 11:55 56.07487 29.06629 33851 ft 441 kts 354°
2026-05-05 11:56 56.13634 29.06746 33854 ft 441 kts 353°
2026-05-05 11:56 56.19779 29.06917 33847 ft 442 kts 354°
2026-05-05 11:57 56.25945 29.07162 33845 ft 443 kts 354°
2026-05-05 11:57 56.32103 29.07371 33848 ft 442 kts 353°
2026-05-05 11:58 56.37218 29.07481 33837 ft 442 kts 353°
2026-05-05 11:58 56.44364 29.07635 33841 ft 441 kts 353°
2026-05-05 11:59 56.50501 29.07781 33838 ft 441 kts 353°
2026-05-05 11:59 56.56633 29.07932 33834 ft 441 kts 353°
2026-05-05 12:00 56.61774 29.08060 33840 ft 441 kts 353°
2026-05-05 12:00 56.67903 29.08213 33833 ft 441 kts 353°
2026-05-05 12:01 56.74051 29.08368 33828 ft 441 kts 353°
2026-05-05 12:01 56.80190 29.08530 33838 ft 441 kts 353°
2026-05-05 12:02 56.86334 29.08763 33832 ft 442 kts 354°
2026-05-05 12:02 56.92442 29.09016 33831 ft 443 kts 354°
2026-05-05 12:03 56.98612 29.09268 33826 ft 444 kts 354°
2026-05-05 12:03 57.04793 29.09517 33820 ft 444 kts 354°
2026-05-05 12:04 57.10978 29.09765 33819 ft 445 kts 354°
2026-05-05 12:04 57.17178 29.10014 33818 ft 445 kts 354°
2026-05-05 12:05 57.23371 29.10264 33823 ft 446 kts 354°
2026-05-05 12:05 57.29583 29.10516 33816 ft 446 kts 353°
2026-05-05 12:06 57.35751 29.10767 33814 ft 447 kts 354°
2026-05-05 12:06 57.41967 29.11022 33810 ft 448 kts 354°
2026-05-05 12:07 57.48193 29.11279 33806 ft 448 kts 354°
2026-05-05 12:07 57.54419 29.11538 33796 ft 449 kts 354°
2026-05-05 12:08 57.60666 29.11798 33795 ft 449 kts 354°
2026-05-05 12:08 57.66939 29.12439 33796 ft 454 kts
2026-05-05 12:09 57.73217 29.14059 33802 ft 456 kts
2026-05-05 12:09 57.79499 29.14929 33791 ft 451 kts 355°
2026-05-05 12:10 57.85778 29.15160 33788 ft 452 kts 355°
2026-05-05 12:10 57.92080 29.15461 33785 ft 454 kts 355°
2026-05-05 12:11 57.98406 29.15852 33782 ft 455 kts 356°
2026-05-05 12:11 58.04727 29.16004 33777 ft 452 kts 351°
2026-05-05 12:12 58.10985 29.15118 33783 ft 451 kts 349°
2026-05-05 12:12 58.17265 29.14254 33779 ft 453 kts 351°
2026-05-05 12:13 58.23635 29.14275 33420 ft 463 kts 356°
2026-05-05 12:13 58.26857 29.14484 32720 ft 462 kts 356°
2026-05-05 12:13 58.30072 29.14720 32013 ft 461 kts 356°
2026-05-05 12:14 58.33270 29.14947 31257 ft 461 kts 356°
2026-05-05 12:14 58.36463 29.15156 30708 ft 456 kts 356°
2026-05-05 12:14 58.39616 29.15349 30175 ft 451 kts 356°
2026-05-05 12:14 58.42736 29.15528 29630 ft 447 kts 355°
2026-05-05 12:15 58.45829 29.15699 29022 ft 442 kts 355°
2026-05-05 12:15 58.48882 29.15865 28477 ft 436 kts 355°
2026-05-05 12:15 58.51860 29.16027 27935 ft 431 kts 355°
2026-05-05 12:15 58.54842 29.16189 27390 ft 427 kts 355°
2026-05-05 12:16 58.57794 29.16350 26858 ft 422 kts 355°
2026-05-05 12:16 58.60718 29.16509 26332 ft 419 kts 355°
2026-05-05 12:16 58.63625 29.16668 25809 ft 415 kts 355°
2026-05-05 12:16 58.66495 29.16825 25291 ft 412 kts 355°
2026-05-05 12:17 58.69355 29.16982 24784 ft 409 kts 354°
2026-05-05 12:17 58.72180 29.17138 24276 ft 406 kts 354°
2026-05-05 12:17 58.75000 29.17294 23768 ft 404 kts 354°
2026-05-05 12:17 58.77801 29.17448 23221 ft 402 kts 354°
2026-05-05 12:18 58.80594 29.17603 22626 ft 400 kts 354°
2026-05-05 12:18 58.83365 29.17759 22094 ft 396 kts 354°
2026-05-05 12:18 58.86104 29.17913 21583 ft 393 kts 354°
2026-05-05 12:18 58.88826 29.18067 21078 ft 389 kts 354°
2026-05-05 12:19 58.91523 29.18218 20580 ft 386 kts 354°
2026-05-05 12:19 58.94199 29.18367 20073 ft 383 kts 354°
2026-05-05 12:19 58.96859 29.18533 19588 ft 383 kts 356°
2026-05-05 12:19 58.99483 29.19763 19039 ft 399 kts 18°
2026-05-05 12:20 59.01827 29.22789 18414 ft 413 kts 41°
2026-05-05 12:20 59.03725 29.26999 17850 ft 415 kts 47°
2026-05-05 12:20 59.05542 29.31355 17261 ft 414 kts 48°
2026-05-05 12:20 59.07337 29.35718 16729 ft 411 kts 48°
2026-05-05 12:21 59.09121 29.40028 16194 ft 408 kts 48°
2026-05-05 12:21 59.10905 29.44296 15706 ft 405 kts 47°
2026-05-05 12:21 59.12690 29.48536 15194 ft 403 kts 47°
2026-05-05 12:21 59.14439 29.52679 14699 ft 400 kts 47°
2026-05-05 12:22 59.16204 29.56858 14183 ft 399 kts 47°
2026-05-05 12:22 59.17962 29.61028 13674 ft 397 kts 47°
2026-05-05 12:22 59.19704 29.65166 13125 ft 395 kts 47°
2026-05-05 12:22 59.21451 29.69327 12612 ft 392 kts 47°
2026-05-05 12:23 59.23169 29.73424 12109 ft 388 kts 47°
2026-05-05 12:23 59.24873 29.77496 11631 ft 384 kts 48°
2026-05-05 12:23 59.26555 29.81523 11130 ft 381 kts 48°
2026-05-05 12:23 59.28218 29.85514 10677 ft 377 kts 48°
2026-05-05 12:24 59.29738 29.89167 10315 ft 372 kts 49°
2026-05-05 12:24 59.31342 29.93034 10158 ft 359 kts 49°
2026-05-05 12:24 59.32892 29.96774 9998 ft 348 kts 49°
2026-05-05 12:24 59.34390 30.00396 9826 ft 337 kts 49°
2026-05-05 12:25 59.35843 30.03915 9710 ft 327 kts 49°
2026-05-05 12:25 59.37246 30.07316 9687 ft 314 kts 49°
2026-05-05 12:25 59.38610 30.10628 9406 ft 311 kts 49°
2026-05-05 12:25 59.39962 30.13910 9163 ft 307 kts 49°
2026-05-05 12:26 59.41299 30.17163 8837 ft 305 kts 49°
2026-05-05 12:26 59.42630 30.20406 8503 ft 304 kts 49°
2026-05-05 12:26 59.43952 30.23630 8202 ft 302 kts 49°
2026-05-05 12:26 59.45266 30.26842 7888 ft 301 kts 49°
2026-05-05 12:27 59.46572 30.30039 7644 ft 298 kts 49°
2026-05-05 12:27 59.47860 30.33197 7363 ft 296 kts 49°
2026-05-05 12:27 59.49150 30.36360 7058 ft 296 kts 49°
2026-05-05 12:27 59.50438 30.39521 6788 ft 295 kts 49°
2026-05-05 12:28 59.51107 30.41168 6645 ft 294 kts 49°
2026-05-05 12:28 59.52358 30.44306 6379 ft 291 kts 55°
2026-05-05 12:28 59.53084 30.48009 6057 ft 291 kts 84°
2026-05-05 12:29 59.53168 30.51934 5781 ft 288 kts 93°
2026-05-05 12:29 59.53141 30.55895 5525 ft 285 kts 93°
2026-05-05 12:29 59.53114 30.59757 5411 ft 282 kts 92°
2026-05-05 12:29 59.53101 30.63610 5285 ft 278 kts 93°
2026-05-05 12:30 59.53102 30.67376 5138 ft 272 kts 89°
2026-05-05 12:30 59.53691 30.70951 4585 ft 283 kts 51°
2026-05-05 12:30 59.55189 30.73277 4354 ft 271 kts 17°
2026-05-05 12:30 59.56973 30.73965 4335 ft 256 kts 353°
2026-05-05 12:31 59.58696 30.73364 4263 ft 252 kts 335°
2026-05-05 12:31 59.60374 30.72230 4092 ft 257 kts 334°
2026-05-05 12:31 59.62069 30.71047 3915 ft 259 kts 334°
2026-05-05 12:31 59.63758 30.69887 3744 ft 256 kts 334°
2026-05-05 12:32 59.65435 30.68754 3568 ft 253 kts 334°
2026-05-05 12:32 59.67067 30.67587 3393 ft 244 kts 329°
2026-05-05 12:32 59.68563 30.66136 3257 ft 237 kts 326°
2026-05-05 12:32 59.70018 30.64635 3092 ft 233 kts 326°
2026-05-05 12:33 59.71448 30.63173 2955 ft 229 kts 326°
2026-05-05 12:33 59.72837 30.61769 2811 ft 219 kts 326°
2026-05-05 12:33 59.74155 30.60429 2656 ft 211 kts 325°
2026-05-05 12:33 59.75315 30.58895 2512 ft 189 kts 301°
2026-05-05 12:34 59.75915 30.56752 2471 ft 171 kts 289°
2026-05-05 12:34 59.76368 30.54712 2501 ft 155 kts 287°
2026-05-05 12:34 59.76757 30.52792 2396 ft 148 kts 284°
2026-05-05 12:34 59.77088 30.50899 2207 ft 140 kts 281°
2026-05-05 12:35 59.77352 30.49090 2041 ft 135 kts 280°
2026-05-05 12:35 59.77609 30.47318 1888 ft 130 kts 281°
2026-05-05 12:35 59.77854 30.45657 1717 ft 124 kts 281°
2026-05-05 12:35 59.78102 30.43969 1538 ft 128 kts 280°
2026-05-05 12:36 59.78345 30.42268 1311 ft 127 kts 282°
2026-05-05 12:36 59.78596 30.40563 1167 ft 129 kts 281°
2026-05-05 12:36 59.78845 30.38871 986 ft 127 kts 283°
2026-05-05 12:36 59.79095 30.37192 771 ft 127 kts 281°
2026-05-05 12:37 59.79356 30.35468 651 ft 132 kts 280°
2026-05-05 12:37 59.79608 30.33711 438 ft 134 kts 283°
2026-05-05 12:37 59.79863 30.31942 286 ft 132 kts 287°
2026-05-05 12:37 59.80133 30.30177 107 ft 134 kts 288°
2026-05-05 12:38 59.80384 30.28517 74 ft 112 kts 286°
2026-05-05 12:38 59.80569 30.27265 72 ft 75 kts 286°
2026-05-05 12:38 59.80632 30.26724 67 ft 16 kts 253°
2026-05-05 12:38 59.80576 30.26632 71 ft 11 kts 182°
2026-05-05 12:39 59.80527 30.26608 71 ft 11 kts 205°
2026-05-05 12:39 59.80455 30.26582 66 ft 11 kts 157°
2026-05-05 12:39 59.80424 30.26695 72 ft 9 kts 108°
2026-05-05 12:39 59.80393 30.26794 64 ft 9 kts 140°
2026-05-05 12:40 59.80337 30.26831 69 ft 10 kts 185°
2026-05-05 12:40 59.80265 30.26794 70 ft 9 kts 199°
2026-05-05 12:40 59.80230 30.26795 68 ft 4 kts 142°
2026-05-05 12:40 59.80216 30.26853 75 ft 6 kts 107°
2026-05-05 12:41 59.80211 30.26887 75 ft 1 kts 107°
2026-05-05 12:41 59.80211 30.26888 75 ft 0 kts 107°